Tracking 28790 objects as of 19-Apr-2024
HD Live streaming from Space Station
objects crossing your sky now

SL-8 DEB

Track SL-8 DEB now!
10-day predictions


NORAD ID: 21252
Int'l Code: 1991-009BK
Perigee: 1,479.4 km
Apogee: 1,677.9 km
Inclination: 74.1 °
Period: 117.6 minutes
Semi major axis: 7949 km
RCS: 0.066 m2 (small)
Launch date: February 12, 1991
Source: Commonwealth of Independent States (former USSR) (CIS)
Launch site: PLESETSK MISSILE AND SPACE COMPLEX (PKMTR)

Note: This is SATELLITE DEBRIS
Your satellite tracking list
Your tracking list is empty




NASA's NSSDC Master Catalog

Two Line Element Set (TLE):
1 21252U 91009BK  24109.88577024  .00000115  00000-0  11431-2 0  9997
2 21252  74.1089  33.6719 0124828  92.6566 340.5090 12.24850424480556
Source of the keplerian elements: AFSPC